Total_Precipitation_Accumulation
0.00 0.00 0.01 0.01 0.01 0.02 0.03 0.07 0.15 0.17 0.16 0.22 0.36 0.60 0.72 0.67 0.68 0.71 0.79 1.00 1.04 1.08 1.31 1.65 2.07 2.49 3.01 3.75 4.15 4.19 3.85 3.05 2.44 2.02 1.81 1.60 1.40 1.22 1.06 0.93 0.81 0.71 0.70 0.65
0.01 0.02 0.02 0.01 0.01 0.03 0.05 0.09 0.17 0.16 0.12 0.14 0.33 0.63 0.71 0.74 0.77 0.69 0.73 0.83 0.76 0.84 1.13 1.61 2.22 2.81 3.16 3.50 3.64 3.48 2.96 2.25 1.76 1.42 1.22 1.02 0.87 0.74 0.66 0.58 0.55 0.54 0.55 0.54
0.02 0.03 0.02 0.01 0.02 0.04 0.08 0.09 0.14 0.17 0.12 0.14 0.33 0.71 0.82 0.78 0.74 0.68 0.56 0.57 0.67 0.83 1.31 2.00 2.70 3.16 3.24 3.07 2.69 2.24 1.84 1.42 1.23 1.06 0.87 0.69 0.59 0.48 0.39 0.34 0.34 0.35 0.34 0.33
0.02 0.03 0.02 0.02 0.04 0.05 0.09 0.07 0.05 0.07 0.11 0.31 0.44 0.82 0.85 0.83 0.78 0.54 0.51 0.59 0.69 0.91 1.42 2.09 2.59 2.62 2.59 2.31 1.85 1.54 1.35 1.13 0.94 0.83 0.78 0.63 0.50 0.44 0.37 0.31 0.29 0.27 0.24 0.24
0.02 0.03 0.03 0.03 0.04 0.05 0.05 0.04 0.04 0.08 0.18 0.33 0.46 0.69 0.84 0.81 0.83 0.45 0.37 0.47 0.59 0.80 1.02 1.23 1.40 1.39 1.35 1.21 1.23 1.23 1.18 1.11 0.96 0.82 0.77 0.67 0.49 0.41 0.36 0.34 0.31 0.29 0.27 0.25
0.03 0.03 0.03 0.03 0.03 0.04 0.04 0.06 0.12 0.21 0.36 0.68 0.66 0.74 0.93 0.87 0.74 0.37 0.20 0.27 0.47 0.58 0.58 0.58 0.57 0.58 0.66 0.63 0.74 0.83 0.81 0.88 0.90 0.81 0.72 0.62 0.51 0.41 0.36 0.32 0.28 0.25 0.25 0.26
0.09 0.07 0.05 0.05 0.05 0.06 0.05 0.09 0.31 0.61 0.91 0.95 0.53 0.59 0.93 0.83 0.52 0.25 0.12 0.12 0.19 0.32 0.39 0.45 0.47 0.50 0.59 0.48 0.48 0.58 0.59 0.59 0.62 0.60 0.54 0.50 0.50 0.43 0.36 0.30 0.23 0.21 0.19 0.20
0.15 0.14 0.09 0.06 0.06 0.06 0.06 0.07 0.18 0.33 0.38 0.47 0.51 0.95 1.06 0.54 0.28 0.14 0.08 0.05 0.10 0.18 0.23 0.28 0.31 0.37 0.43 0.35 0.34 0.41 0.48 0.45 0.41 0.39 0.38 0.37 0.39 0.34 0.31 0.34 0.27 0.22 0.21 0.20
0.06 0.08 0.07 0.07 0.07 0.07 0.06 0.05 0.07 0.09 0.15 0.36 0.64 0.91 0.73 0.34 0.21 0.09 0.04 0.04 0.05 0.09 0.11 0.12 0.14 0.19 0.24 0.25 0.27 0.31 0.36 0.37 0.32 0.29 0.27 0.28 0.30 0.30 0.29 0.30 0.28 0.24 0.26 0.23
0.04 0.03 0.05 0.05 0.07 0.07 0.06 0.06 0.07 0.09 0.17 0.32 0.55 0.85 0.81 0.40 0.21 0.08 0.06 0.07 0.06 0.06 0.07 0.07 0.08 0.10 0.13 0.17 0.24 0.27 0.31 0.34 0.30 0.24 0.21 0.18 0.21 0.25 0.28 0.26 0.25 0.24 0.23 0.22
0.03 0.02 0.05 0.05 0.07 0.08 0.09 0.08 0.10 0.10 0.10 0.18 0.38 0.54 0.35 0.25 0.16 0.11 0.08 0.05 0.04 0.04 0.06 0.06 0.04 0.04 0.07 0.12 0.17 0.19 0.26 0.33 0.30 0.25 0.22 0.19 0.19 0.19 0.22 0.26 0.27 0.27 0.25 0.19
0.03 0.03 0.04 0.08 0.10 0.10 0.11 0.11 0.12 0.13 0.12 0.11 0.20 0.27 0.20 0.20 0.18 0.13 0.08 0.06 0.03 0.03 0.03 0.02 0.02 0.03 0.05 0.07 0.10 0.14 0.18 0.28 0.27 0.26 0.24 0.19 0.17 0.17 0.19 0.22 0.24 0.24 0.25 0.23
0.03 0.04 0.06 0.15 0.21 0.17 0.12 0.10 0.11 0.11 0.09 0.10 0.21 0.29 0.18 0.13 0.15 0.11 0.11 0.08 0.04 0.03 0.03 0.03 0.03 0.04 0.08 0.09 0.11 0.15 0.17 0.24 0.30 0.27 0.24 0.22 0.18 0.15 0.17 0.20 0.22 0.22 0.24 0.26
0.04 0.04 0.06 0.15 0.24 0.26 0.18 0.12 0.11 0.09 0.07 0.08 0.13 0.26 0.21 0.19 0.17 0.14 0.14 0.12 0.09 0.05 0.04 0.04 0.05 0.06 0.09 0.11 0.13 0.15 0.19 0.20 0.24 0.27 0.26 0.23 0.22 0.21 0.21 0.19 0.21 0.21 0.24 0.28
0.04 0.04 0.04 0.05 0.09 0.12 0.15 0.13 0.10 0.07 0.05 0.07 0.10 0.16 0.19 0.25 0.17 0.12 0.14 0.12 0.11 0.08 0.06 0.07 0.08 0.08 0.10 0.13 0.15 0.18 0.20 0.26 0.30 0.32 0.35 0.34 0.33 0.34 0.33 0.30 0.29 0.31 0.32 0.33
0.07 0.06 0.04 0.04 0.07 0.10 0.11 0.14 0.10 0.07 0.06 0.05 0.08 0.16 0.20 0.21 0.17 0.15 0.15 0.15 0.13 0.12 0.12 0.15 0.16 0.16 0.17 0.19 0.22 0.25 0.26 0.34 0.40 0.48 0.52 0.52 0.59 0.61 0.55 0.51 0.51 0.49 0.49 0.52
0.12 0.10 0.07 0.07 0.10 0.10 0.13 0.12 0.11 0.12 0.10 0.09 0.12 0.19 0.20 0.20 0.23 0.32 0.31 0.27 0.25 0.24 0.24 0.24 0.27 0.25 0.25 0.24 0.27 0.32 0.36 0.45 0.54 0.64 0.74 0.79 0.82 0.88 0.86 0.81 0.76 0.71 0.73 0.77
0.18 0.17 0.14 0.11 0.14 0.19 0.15 0.16 0.13 0.14 0.15 0.14 0.18 0.24 0.30 0.39 0.40 0.47 0.46 0.37 0.27 0.22 0.23 0.25 0.31 0.33 0.30 0.34 0.39 0.42 0.48 0.58 0.71 0.84 0.96 1.07 1.05 1.02 1.01 0.99 0.89 0.88 0.95 0.98
0.19 0.22 0.22 0.20 0.21 0.18 0.18 0.22 0.23 0.24 0.27 0.27 0.35 0.41 0.49 0.53 0.43 0.36 0.30 0.21 0.17 0.16 0.19 0.24 0.29 0.35 0.40 0.40 0.44 0.49 0.49 0.57 0.73 0.85 0.88 0.90 0.96 1.03 1.10 1.08 1.07 1.11 1.11 1.03
0.26 0.25 0.33 0.30 0.31 0.31 0.30 0.36 0.33 0.33 0.53 0.47 0.43 0.45 0.49 0.46 0.52 0.47 0.32 0.24 0.19 0.17 0.18 0.20 0.22 0.25 0.33 0.42 0.44 0.45 0.50 0.59 0.72 0.82 0.82 0.78 0.85 0.99 1.11 1.16 1.16 1.14 1.12 1.08
0.42 0.44 0.40 0.40 0.43 0.37 0.37 0.33 0.31 0.47 0.58 0.52 0.52 0.52 0.52 0.55 0.53 0.49 0.32 0.23 0.20 0.18 0.16 0.17 0.17 0.17 0.23 0.30 0.35 0.41 0.49 0.56 0.59 0.65 0.72 0.77 0.86 0.97 1.03 1.11 1.15 1.18 1.20 1.23
0.51 0.54 0.53 0.52 0.64 0.61 0.47 0.40 0.50 0.60 0.51 0.55 0.55 0.49 0.45 0.41 0.34 0.29 0.25 0.22 0.19 0.17 0.16 0.15 0.16 0.17 0.20 0.23 0.27 0.33 0.36 0.38 0.42 0.45 0.49 0.52 0.63 0.75 0.83 0.96 1.00 1.06 1.08 1.08
0.63 0.61 0.61 0.70 0.76 0.61 0.56 0.56 0.60 0.57 0.47 0.45 0.44 0.41 0.40 0.40 0.35 0.27 0.25 0.22 0.17 0.14 0.12 0.10 0.12 0.14 0.18 0.23 0.28 0.35 0.37 0.39 0.40 0.41 0.41 0.44 0.51 0.67 0.83 0.88 0.86 0.89 0.91 0.90
0.71 0.58 0.63 0.82 0.86 0.77 0.70 0.65 0.57 0.56 0.50 0.42 0.39 0.43 0.43 0.41 0.34 0.31 0.28 0.21 0.14 0.10 0.07 0.08 0.09 0.11 0.13 0.14 0.19 0.25 0.30 0.36 0.42 0.44 0.45 0.47 0.53 0.67 0.91 1.05 0.99 0.92 0.91 0.88
0.61 0.64 0.66 0.78 0.90 0.78 0.69 0.63 0.59 0.57 0.51 0.46 0.43 0.43 0.38 0.32 0.32 0.30 0.24 0.16 0.11 0.08 0.07 0.08 0.09 0.11 0.12 0.13 0.16 0.22 0.29 0.37 0.41 0.41 0.40 0.40 0.47 0.61 0.83 1.00 1.00 0.88 0.86 0.84
0.49 0.59 0.62 0.70 0.72 0.75 0.75 0.66 0.59 0.60 0.58 0.51 0.45 0.42 0.38 0.31 0.28 0.25 0.18 0.12 0.10 0.08 0.08 0.10 0.12 0.14 0.16 0.19 0.24 0.28 0.35 0.44 0.50 0.48 0.45 0.45 0.48 0.57 0.77 0.99 1.05 0.86 0.70 0.69